Location: Limerick
(52.6800°N, 8.6400°W)
Time: 10:07:30
(UTC+01:00)

Amateur Radio Satellites - All Passes

Search period start: 19 August 2017 09:37
Search period end: 20 August 2017 09:37
Location: Limerick, 52.6800°N, 8.6400°W

Satellite Date Start Highest point End Downlink Frequencies (MHz)
Time Altitude Azimuth
ZACube-1 19 Aug 09:45:18 09:49:20 42° 98° (E) 09:53:27 437.345
XW-2F 19 Aug 09:47:04 09:48:06 11° 305° (NW) 09:49:09 145.980 - 146.000
AO-7 19 Aug 09:48:52 09:52:26 13° 343° (NNW) 09:56:01 .
HO-68 19 Aug 09:52:28 09:59:36 70° 294° (WNW) 10:06:41 435.675
M-CUBED/EXP-1 PRIME 19 Aug 09:57:27 10:00:29 18° 47° (NE) 10:03:33 437.505
SEEDS 19 Aug 10:07:36 10:11:36 40° 293° (WNW) 10:15:34 437.485
AO-73 19 Aug 10:07:47 10:12:00 62° 102° (ESE) 10:16:17 145.935
TIGRISAT 19 Aug 10:11:52 10:16:07 58° 71° (ENE) 10:20:19 435.000
AIST 2D 19 Aug 10:21:50 10:22:42 11° 56° (ENE) 10:23:33 435.315
PRISM 19 Aug 10:21:54 10:26:00 59° 71° (ENE) 10:30:08 437.425
FO-29 19 Aug 10:26:19 10:33:47 62° 259° (WSW) 10:40:34 435.910
EO-88 19 Aug 10:30:17 10:32:11 13° 89° (E) 10:34:04 145.990 - 145.960
UWE-3 19 Aug 10:37:01 10:40:57 39° 292° (WNW) 10:44:55 435.000/436.395/437.385
NANOSAT C BR1 19 Aug 10:39:54 10:40:37 10° 51° (NE) 10:41:20 145.865
CUBEBUG 2 19 Aug 10:40:08 10:43:33 25° 297° (WNW) 10:47:00 437.445
POLYITAN 1 19 Aug 10:41:35 10:43:07 12° 53° (NE) 10:44:39 437.675
SO-50 19 Aug 10:42:56 10:44:11 11° 251° (WSW) 10:45:26 436.795
PCSat 19 Aug 10:45:56 10:48:20 13° 257° (WSW) 10:50:43 145.827
DELFI C3 19 Aug 10:49:54 10:53:36 34° 96° (E) 10:57:15 145.870
CUTE 1.7 + AOD 2 19 Aug 10:52:32 10:54:41 14° 305° (NW) 10:56:49 437.475
XW-2A 19 Aug 10:53:29 10:55:07 13° 301° (WNW) 10:56:45 145.665 - 145.685
QB50P2 19 Aug 10:55:16 10:57:53 16° 57° (ENE) 11:00:31 145.880/145.840
Oscar 11 19 Aug 10:55:34 10:59:53 63° 289° (WNW) 11:04:12 .
EO-79 19 Aug 10:56:54 10:59:24 16° 56° (NE) 11:01:55 145.935-145.965
BEESAT 3 19 Aug 10:59:37 11:01:59 15° 357° (N) 11:04:21 437.485
RS-15 19 Aug 10:59:57 11:08:46 24° 98° (E) 11:17:35 29.354- 29.394
AAUSAT CUBESAT 2 19 Aug 11:00:00 11:03:31 26° 297° (WNW) 11:07:00 437.432
Max Valier Satellite 19 Aug 11:03:54 11:07:21 36° 97° (E) 11:10:48 145.860
BEESAT 2 19 Aug 11:07:27 11:10:06 16° 349° (NNW) 11:12:45 435.950
AO-85 19 Aug 11:08:23 11:10:48 15° 356° (N) 11:13:16 145.980
Tancredo 1 19 Aug 11:09:31 11:11:10 14° 144° (SE) 11:12:48 437.200
UNISAT 6 19 Aug 11:13:07 11:17:08 36° 263° (W) 11:21:08 437.425
O/OREOS (USA 219) 19 Aug 11:13:41 11:18:04 59° 114° (ESE) 11:22:30 437.305
ZACube-1 19 Aug 11:21:55 11:25:30 27° 297° (WNW) 11:29:07 437.345
DUCHIFAT 1 19 Aug 11:28:34 11:31:53 23° 61° (ENE) 11:35:12 145.980
M-CUBED/EXP-1 PRIME 19 Aug 11:29:39 11:34:13 82° 66° (ENE) 11:38:55 437.505
AO-7 19 Aug 11:38:48 11:41:46 12° 11° (N) 11:44:43 .
ESTCUBE 1 19 Aug 11:39:13 11:39:42 10° 83° (E) 11:40:12 437.505/2401.250
BUGSAT 1 19 Aug 11:39:52 11:40:58 11° 53° (NE) 11:42:04 437.445
HO-68 19 Aug 11:41:07 11:46:13 22° 316° (NW) 11:51:20 435.675
ISS 19 Aug 11:43:02 11:44:02 11° 139° (SE) 11:45:01 437.550
AO-73 19 Aug 11:44:49 11:47:53 20° 300° (WNW) 11:50:59 145.935
TIGRISAT 19 Aug 11:50:03 11:53:11 19° 270° (W) 11:56:17 435.000
AIST 2D 19 Aug 11:51:48 11:55:18 87° 76° (ENE) 11:58:50 435.315
nSIGHT-1 19 Aug 11:53:19 11:55:02 14° 141° (SE) 11:56:45 .
PRISM 19 Aug 11:58:43 12:01:38 18° 269° (W) 12:04:35 437.425
EO-88 19 Aug 12:02:36 12:06:16 65° 287° (WNW) 12:09:54 145.990 - 145.960
Gurwin Techsat 1B 19 Aug 12:04:09 12:05:36 11° 44° (NE) 12:07:02 435.225
LO-87 19 Aug 12:06:26 12:09:16 22° 93° (E) 12:12:05 145.935 - 145.965
NANOSAT C BR1 19 Aug 12:11:22 12:15:30 60° 70° (ENE) 12:19:38 145.865
POLYITAN 1 19 Aug 12:13:59 12:18:09 70° 72° (ENE) 12:22:20 437.675
FO-29 19 Aug 12:16:09 12:20:02 15° 278° (W) 12:23:44 435.910
DELFI C3 19 Aug 12:24:49 12:28:18 29° 296° (WNW) 12:31:45 145.870
QB50P2 19 Aug 12:28:57 12:33:10 79° 255° (WSW) 12:37:24 145.880/145.840
EO-79 19 Aug 12:30:25 12:34:38 83° 255° (WSW) 12:38:52 145.935-145.965
Oscar 11 19 Aug 12:33:48 12:35:12 11° 308° (NW) 12:36:36 .
BEESAT 3 19 Aug 12:37:50 12:40:56 20° 21° (NNE) 12:44:00 437.485
Max Valier Satellite 19 Aug 12:38:02 12:41:04 24° 296° (WNW) 12:44:05 145.860
Tancredo 1 19 Aug 12:43:03 12:45:53 46° 163° (SSE) 12:48:43 437.200
Oscar 19 19 Aug 12:43:27 12:47:38 26° 57° (ENE) 12:51:50 437.125/150
BEESAT 2 19 Aug 12:46:35 12:49:18 17° 12° (NNE) 12:52:00 435.950
AO-85 19 Aug 12:49:28 12:52:36 21° 21° (NNE) 12:55:50 145.980
O/OREOS (USA 219) 19 Aug 12:54:03 12:57:49 26° 315° (NW) 13:01:38 437.305
DUCHIFAT 1 19 Aug 13:03:14 13:07:17 49° 260° (W) 13:11:23 145.980
M-CUBED/EXP-1 PRIME 19 Aug 13:06:13 13:09:11 17° 267° (W) 13:12:12 437.505
RS-15 19 Aug 13:06:55 13:19:05 71° 124° (ESE) 13:31:16 29.354- 29.394
BUGSAT 1 19 Aug 13:11:31 13:15:35 67° 71° (ENE) 13:19:38 437.445
ESTCUBE 1 19 Aug 13:12:50 13:17:23 69° 103° (ESE) 13:21:55 437.505/2401.250
ISS 19 Aug 13:16:45 13:19:50 39° 157° (SSE) 13:22:56 437.550
AO-7 19 Aug 13:25:24 13:31:39 24° 38° (NE) 13:37:54 .
nSIGHT-1 19 Aug 13:27:42 13:30:50 44° 160° (SSE) 13:33:58 .
VELOX 1 19 Aug 13:29:00 13:32:41 25° 93° (E) 13:36:21 145.980
Gurwin Techsat 1B 19 Aug 13:39:17 13:44:19 45° 65° (ENE) 13:49:24 435.225
DX 1 19 Aug 13:39:29 13:40:19 10° 85° (E) 13:41:10 434.975-435.025
LO-87 19 Aug 13:39:33 13:42:49 35° 292° (WNW) 13:46:04 145.935 - 145.965
NANOSAT C BR1 19 Aug 13:48:40 13:51:35 18° 270° (W) 13:54:31 145.865
POLYITAN 1 19 Aug 13:51:49 13:54:25 16° 271° (W) 13:57:01 437.675
SPROUT 19 Aug 13:52:03 13:56:11 48° 100° (E) 14:00:18 437.525
ITAMSAT 1 19 Aug 14:00:47 14:03:17 14° 47° (NE) 14:05:46 435.822/435.867
QB50P2 19 Aug 14:08:44 14:09:42 11° 275° (W) 14:10:39 145.880/145.840
EO-79 19 Aug 14:09:47 14:11:05 11° 275° (W) 14:12:23 145.935-145.965
BEESAT 3 19 Aug 14:15:11 14:19:13 65° 44° (NE) 14:23:10 437.485
Tancredo 1 19 Aug 14:18:03 14:20:59 73° 181° (S) 14:23:52 437.200
Oscar 19 19 Aug 14:21:28 14:26:35 65° 258° (WSW) 14:31:45 437.125/150
BEESAT 2 19 Aug 14:24:14 14:28:05 38° 35° (NE) 14:31:54 435.950
AO-85 19 Aug 14:29:34 14:33:42 63° 43° (NE) 14:38:06 145.980
50 SAT 19 Aug 14:47:17 14:50:40 59° 102° (ESE) 14:54:00 437.505
BUGSAT 1 19 Aug 14:48:53 14:51:23 16° 271° (W) 14:53:53 437.445
ESTCUBE 1 19 Aug 14:50:25 14:53:46 20° 302° (WNW) 14:57:06 437.505/2401.250
ISS 19 Aug 14:52:51 14:56:08 75° 177° (S) 14:59:25 437.550
UKube-1 19 Aug 14:55:35 14:59:36 36° 97° (E) 15:03:34 .
nSIGHT-1 19 Aug 15:03:49 15:07:04 76° 179° (S) 15:10:19 .
VELOX 1 19 Aug 15:05:05 15:09:22 47° 292° (WNW) 15:13:35 145.980
DX 1 19 Aug 15:12:56 15:17:19 74° 104° (ESE) 15:21:40 434.975-435.025
AO-7 19 Aug 15:14:49 15:23:05 66° 61° (ENE) 15:31:21 .
Gurwin Techsat 1B 19 Aug 15:19:36 15:24:26 34° 265° (W) 15:29:17 435.225
RS-15 19 Aug 15:20:04 15:32:17 60° 332° (NNW) 15:44:22 29.354- 29.394
SPROUT 19 Aug 15:28:26 15:31:52 24° 299° (WNW) 15:35:16 437.525
ITAMSAT 1 19 Aug 15:36:40 15:41:46 59° 68° (ENE) 15:46:54 435.822/435.867
Tancredo 1 19 Aug 15:53:17 15:56:00 37° 202° (SSW) 15:58:44 437.200
BEESAT 3 19 Aug 15:53:23 15:56:25 21° 243° (WSW) 15:59:25 437.485
DOVE 4 19 Aug 16:00:02 16:02:27 13° 50° (NE) 16:04:50 437.250
BEESAT 2 19 Aug 16:02:02 16:05:54 42° 236° (SW) 16:09:42 435.950
Oscar 19 19 Aug 16:05:33 16:06:58 11° 278° (W) 16:08:23 437.125/150
YUBILEINY 19 Aug 16:09:04 16:16:47 36° 83° (E) 16:24:30 435.215
AO-85 19 Aug 16:10:23 16:13:50 24° 241° (WSW) 16:17:28 145.980
BEESAT 19 Aug 16:16:15 16:20:30 31° 95° (E) 16:24:43 436.000
MOZHAYETS 4 19 Aug 16:16:59 16:20:58 28° 94° (E) 16:24:57
50 SAT 19 Aug 16:21:02 16:22:56 14° 301° (WNW) 16:24:50 437.505
ISS 19 Aug 16:29:18 16:32:30 52° 197° (SSW) 16:35:42 437.550
UKube-1 19 Aug 16:31:44 16:35:35 32° 296° (WNW) 16:39:25 .
CUBESAT XI-V 19 Aug 16:33:52 16:35:01 11° 83° (E) 16:36:10 437.345
nSIGHT-1 19 Aug 16:40:11 16:43:19 46° 199° (SSW) 16:46:26 .
ITUPSAT 1 19 Aug 16:49:05 16:53:47 57° 101° (E) 16:58:30 437.325
DX 1 19 Aug 16:50:02 16:53:01 18° 304° (WNW) 16:55:59 434.975-435.025
HO-68 19 Aug 16:56:45 17:00:25 15° 35° (NE) 17:04:04 435.675
AO-7 19 Aug 17:08:42 17:16:21 39° 264° (W) 17:24:04 .
XW-2C 19 Aug 17:11:44 17:13:25 13° 56° (NE) 17:15:06 145.795 - 145.815
ITAMSAT 1 19 Aug 17:17:19 17:21:36 26° 268° (W) 17:25:56 435.822/435.867
XW-2F 19 Aug 17:24:43 17:27:00 16° 59° (ENE) 17:29:18 145.980 - 146.000
CUTE-I 19 Aug 17:33:14 17:37:41 27° 58° (ENE) 17:42:08 437.470
DOVE 4 19 Aug 17:34:01 17:39:12 59° 70° (ENE) 17:44:15 437.250
RS-15 19 Aug 17:35:41 17:47:32 47° 4° (N) 17:59:01 29.354- 29.394
KAITUO 1B 19 Aug 17:52:12 17:55:09 23° 63° (ENE) 17:58:07 145.475/437.950
BEESAT 19 Aug 17:53:54 17:58:25 43° 294° (WNW) 18:02:54 436.000
MOZHAYETS 4 19 Aug 17:53:55 17:58:18 45° 293° (WNW) 18:02:42
O/OREOS (USA 219) 19 Aug 18:00:07 18:02:26 14° 32° (NNE) 18:04:44 437.305
YUBILEINY 19 Aug 18:04:22 18:13:07 67° 286° (WNW) 18:21:52 435.215
ISS 19 Aug 18:06:16 18:08:30 17° 216° (SW) 18:10:43 437.550
LilacSat-2 19 Aug 18:07:01 18:10:34 41° 69° (ENE) 18:14:11 437.200
CUBESAT XI-V 19 Aug 18:08:32 18:13:17 69° 102° (ESE) 18:17:59 437.345
XW-2D 19 Aug 18:13:27 18:17:03 46° 70° (ENE) 18:20:42 145.860 - 145.880
nSIGHT-1 19 Aug 18:17:21 18:19:07 14° 218° (SW) 18:20:54 .
KKS-1 19 Aug 18:18:03 18:22:16 40° 98° (E) 18:26:27 437.445
XW-2B 19 Aug 18:24:20 18:28:01 57° 72° (ENE) 18:31:47 145.730 - 145.750
NUDT-PHONESAT 19 Aug 18:26:58 18:30:30 46° 70° (ENE) 18:34:04 437.300
ITUPSAT 1 19 Aug 18:27:26 18:31:20 25° 301° (WNW) 18:35:13 437.325
CUBEBUG 2 19 Aug 18:33:10 18:34:55 12° 54° (NE) 18:36:39 437.445
CUTE 1.7 + AOD 2 19 Aug 18:38:40 18:41:56 22° 60° (ENE) 18:45:13 437.475
HO-68 19 Aug 18:39:48 18:46:28 44° 58° (ENE) 18:53:09 435.675
XW-2C 19 Aug 18:43:15 18:47:01 88° 255° (WSW) 18:50:50 145.795 - 145.815
AAUSAT CUBESAT 2 19 Aug 18:48:23 18:48:59 10° 52° (NE) 18:49:37 437.432
XW-2F 19 Aug 18:56:58 19:00:41 67° 258° (WSW) 19:04:28 145.980 - 146.000
STARS 19 Aug 19:01:37 19:05:52 47° 100° (E) 19:10:04 437.465
CUTE-I 19 Aug 19:12:04 19:17:23 63° 258° (WSW) 19:22:44 437.470
DOVE 4 19 Aug 19:12:48 19:17:11 26° 269° (W) 19:21:31 437.250
ZACube-1 19 Aug 19:14:02 19:15:11 11° 52° (NE) 19:16:19 437.345
KAITUO 1B 19 Aug 19:25:27 19:28:57 40° 262° (W) 19:32:31 145.475/437.950
SEEDS 19 Aug 19:29:02 19:32:58 39° 67° (ENE) 19:36:57 437.485
AO-73 19 Aug 19:34:54 19:37:15 15° 56° (NE) 19:39:37 145.935
STRAND 1 19 Aug 19:38:11 19:40:21 13° 84° (E) 19:42:30 437.568
O/OREOS (USA 219) 19 Aug 19:38:30 19:42:56 51° 55° (NE) 19:47:22 437.305
LilacSat-2 19 Aug 19:42:03 19:45:01 22° 268° (W) 19:48:02 437.200
CUBESAT XI-V 19 Aug 19:46:41 19:50:13 21° 302° (WNW) 19:53:44 437.345
XW-2D 19 Aug 19:48:43 19:51:29 19° 269° (W) 19:54:16 145.860 - 145.880
RS-15 19 Aug 19:50:04 20:02:22 70° 36° (NE) 20:14:03 29.354- 29.394
KKS-1 19 Aug 19:54:51 19:58:44 30° 298° (WNW) 20:02:35 437.445
XW-2A 19 Aug 19:55:56 19:59:12 57° 73° (ENE) 20:02:31 145.665 - 145.685
XW-2B 19 Aug 20:00:14 20:02:35 16° 271° (W) 20:04:57 145.730 - 145.750
NUDT-PHONESAT 19 Aug 20:02:02 20:04:38 18° 269° (W) 20:07:16 437.300
UWE-3 19 Aug 20:03:11 20:07:09 44° 69° (ENE) 20:11:07 435.000/436.395/437.385
YUBILEINY 19 Aug 20:05:40 20:11:56 21° 312° (NW) 20:18:13 435.215
CUBEBUG 2 19 Aug 20:06:36 20:10:52 76° 72° (ENE) 20:15:03 437.445
CUTE 1.7 + AOD 2 19 Aug 20:13:18 20:17:27 54° 260° (W) 20:21:40 437.475
AAUSAT CUBESAT 2 19 Aug 20:19:29 20:23:35 60° 72° (ENE) 20:27:44 437.432
Oscar 11 19 Aug 20:20:22 20:24:05 29° 63° (ENE) 20:27:50 .
XW-2C 19 Aug 20:21:38 20:21:50 10° 275° (W) 20:22:02 145.795 - 145.815
HO-68 19 Aug 20:27:12 20:34:09 52° 260° (W) 20:41:09 435.675
STARS 19 Aug 20:38:23 20:42:00 26° 299° (WNW) 20:45:36 437.465
ZACube-1 19 Aug 20:46:35 20:50:42 67° 72° (ENE) 20:54:50 437.345
CUTE-I 19 Aug 20:57:03 20:58:32 11° 278° (W) 21:00:02 437.470
SEEDS 19 Aug 21:05:10 21:08:47 27° 267° (W) 21:12:26 437.485
AO-73 19 Aug 21:08:48 21:12:57 84° 256° (WSW) 21:17:07 145.935
EO-88 19 Aug 21:13:40 21:15:53 16° 59° (ENE) 21:18:08 145.990 - 145.960
STRAND 1 19 Aug 21:15:20 21:20:27 73° 104° (ESE) 21:25:33 437.568
O/OREOS (USA 219) 19 Aug 21:18:21 21:22:06 26° 255° (WSW) 21:25:51 437.305
XW-2A 19 Aug 21:30:47 21:32:19 13° 271° (W) 21:33:51 145.665 - 145.685
FO-29 19 Aug 21:31:54 21:34:40 14° 81° (E) 21:37:19 435.910
UWE-3 19 Aug 21:40:26 21:43:50 24° 267° (W) 21:47:14 435.000/436.395/437.385
DELFI C3 19 Aug 21:40:27 21:44:16 44° 69° (ENE) 21:48:07 145.870
CUBEBUG 2 19 Aug 21:45:38 21:48:00 15° 272° (W) 21:50:22 437.445
Max Valier Satellite 19 Aug 21:48:08 21:51:33 39° 69° (ENE) 21:55:00 145.860
Oscar 11 19 Aug 21:56:04 22:00:07 40° 263° (W) 22:04:13 .
AAUSAT CUBESAT 2 19 Aug 21:56:32 21:59:26 18° 271° (W) 22:02:22 437.432
RS-15 19 Aug 22:03:07 22:14:38 54° 244° (WSW) 22:25:36 29.354- 29.394
HO-68 19 Aug 22:21:44 22:23:39 11° 282° (WNW) 22:25:35 435.675
ZACube-1 19 Aug 22:24:53 22:27:27 16° 271° (W) 22:30:03 437.345
ESTCUBE 1 19 Aug 22:42:37 22:45:58 21° 58° (ENE) 22:49:20 437.505/2401.250
EO-88 19 Aug 22:45:33 22:49:09 62° 258° (WSW) 22:52:48 145.990 - 145.960
LO-87 19 Aug 22:47:59 22:50:55 24° 64° (ENE) 22:53:49 145.935 - 145.965
AO-73 19 Aug 22:48:50 22:49:54 11° 275° (W) 22:50:57 145.935
STRAND 1 19 Aug 22:55:16 22:59:10 23° 304° (NW) 23:03:04 437.568
UNISAT 6 19 Aug 22:58:15 23:02:01 29° 95° (E) 23:05:48 437.425
FO-29 19 Aug 23:15:08 23:21:04 76° 104° (ESE) 23:26:24 435.910
DELFI C3 19 Aug 23:16:03 23:19:14 22° 268° (W) 23:22:27 145.870
SPROUT 19 Aug 23:17:39 23:19:40 13° 54° (NE) 23:21:41 437.525
Max Valier Satellite 19 Aug 23:22:42 23:25:33 21° 268° (W) 23:28:24 145.860
PRISM 19 Aug 23:32:24 23:36:22 41° 98° (E) 23:40:16 437.425
TIGRISAT 19 Aug 23:33:34 23:37:47 56° 101° (E) 23:42:03 435.000
PCSat 19 Aug 23:48:08 23:52:57 34° 114° (ESE) 23:57:47 145.827
QB50P2 20 Aug 00:09:40 00:11:08 12° 86° (E) 00:12:36 145.880/145.840
EO-79 20 Aug 00:11:16 00:12:22 11° 85° (E) 00:13:26 145.935-145.965
ESTCUBE 1 20 Aug 00:17:52 00:22:21 67° 258° (WSW) 00:26:54 437.505/2401.250
RS-15 20 Aug 00:18:34 00:23:53 14° 270° (W) 00:29:07 29.354- 29.394
LO-87 20 Aug 00:20:53 00:24:12 35° 263° (W) 00:27:32 145.935 - 145.965
UKube-1 20 Aug 00:22:43 00:24:19 12° 51° (NE) 00:25:56 .
VELOX 1 20 Aug 00:31:24 00:35:39 46° 67° (ENE) 00:39:56 145.980
UNISAT 6 20 Aug 00:34:51 00:38:50 38° 294° (WNW) 00:42:50 437.425
M-CUBED/EXP-1 PRIME 20 Aug 00:37:33 00:41:14 25° 98° (E) 00:44:44 437.505
DX 1 20 Aug 00:39:05 00:42:24 22° 59° (ENE) 00:45:45 434.975-435.025
DUCHIFAT 1 20 Aug 00:41:45 00:44:35 17° 90° (E) 00:47:24 145.980
AIST 2D 20 Aug 00:44:00 00:47:27 46° 99° (E) 00:50:53 435.315
SPROUT 20 Aug 00:50:37 00:54:53 78° 75° (ENE) 00:59:10 437.525
SO-50 20 Aug 00:59:26 01:03:50 54° 126° (SE) 01:08:15 436.795
FO-29 20 Aug 01:00:56 01:05:33 24° 308° (NW) 01:09:49 435.910
PRISM 20 Aug 01:08:00 01:11:29 27° 298° (WNW) 01:14:57 437.425
TIGRISAT 20 Aug 01:10:55 01:14:11 22° 300° (WNW) 01:17:28 435.000
50 SAT 20 Aug 01:23:27 01:26:49 56° 72° (ENE) 01:30:11 437.505
NANOSAT C BR1 20 Aug 01:25:07 01:29:12 48° 100° (E) 01:33:15 145.865
POLYITAN 1 20 Aug 01:28:21 01:32:30 56° 101° (E) 01:36:39 437.675
PCSat 20 Aug 01:30:47 01:36:08 58° 315° (NW) 01:41:32 145.827
QB50P2 20 Aug 01:43:23 01:47:37 85° 105° (ESE) 01:51:50 145.880/145.840
EO-79 20 Aug 01:44:37 01:48:50 81° 104° (ESE) 01:53:03 145.935-145.965
MOZHAYETS 4 20 Aug 01:51:53 01:52:29 10° 48° (NE) 01:53:05
Gurwin Techsat 1B 20 Aug 01:51:55 01:53:04 11° 82° (E) 01:54:12 435.225
BEESAT 20 Aug 01:53:26 01:55:50 14° 51° (NE) 01:58:15 436.000
UKube-1 20 Aug 01:55:15 01:59:33 65° 70° (ENE) 02:03:51 .
VELOX 1 20 Aug 02:08:33 02:12:18 26° 267° (W) 02:16:04 145.980
YUBILEINY 20 Aug 02:10:28 02:17:38 27° 54° (NE) 02:24:43 435.215
M-CUBED/EXP-1 PRIME 20 Aug 02:11:30 02:15:55 51° 298° (WNW) 02:20:03 437.505
DX 1 20 Aug 02:13:54 02:18:14 61° 258° (WSW) 02:22:37 434.975-435.025
DUCHIFAT 1 20 Aug 02:16:31 02:20:40 62° 289° (WNW) 02:24:47 145.980
AIST 2D 20 Aug 02:17:51 02:20:23 19° 298° (WNW) 02:22:54 435.315
BUGSAT 1 20 Aug 02:22:26 02:26:21 49° 100° (E) 02:30:15 437.445
ITUPSAT 1 20 Aug 02:25:10 02:28:51 23° 57° (ENE) 02:32:33 437.325
Oscar 19 20 Aug 02:27:04 02:31:37 29° 93° (E) 02:36:08 437.125/150
SPROUT 20 Aug 02:28:58 02:31:20 14° 272° (W) 02:33:43 437.525
SO-50 20 Aug 02:40:18 02:44:30 37° 328° (NNW) 02:48:43 436.795
50 SAT 20 Aug 02:58:00 02:59:49 14° 270° (W) 03:01:39 437.505
NANOSAT C BR1 20 Aug 03:01:19 03:04:41 24° 299° (WNW) 03:08:02 145.865
POLYITAN 1 20 Aug 03:04:48 03:07:58 21° 300° (WNW) 03:11:08 437.675
AO-7 20 Aug 03:12:10 03:15:33 13° 79° (E) 03:18:53 .
PCSat 20 Aug 03:16:22 03:20:39 23° 339° (NNW) 03:24:56 145.827
QB50P2 20 Aug 03:20:23 03:22:50 15° 304° (NW) 03:25:18 145.880/145.840
EO-79 20 Aug 03:21:30 03:24:05 16° 304° (WNW) 03:26:39 145.935-145.965
MOZHAYETS 4 20 Aug 03:24:15 03:28:39 52° 69° (ENE) 03:33:07
BEESAT 20 Aug 03:28:05 03:32:48 69° 70° (ENE) 03:37:33 436.000
Gurwin Techsat 1B 20 Aug 03:28:51 03:34:09 61° 102° (ESE) 03:39:24 435.225
UKube-1 20 Aug 03:33:02 03:36:00 18° 270° (W) 03:38:58 .
CUBESAT XI-V 20 Aug 03:41:30 03:45:05 22° 58° (ENE) 03:48:41 437.345
ITAMSAT 1 20 Aug 03:45:11 03:47:25 13° 84° (E) 03:49:39 435.822/435.867
NO-84 20 Aug 03:45:56 03:48:36 37° 148° (SSE) 03:51:17 435.350 FM
KKS-1 20 Aug 03:47:39 03:50:01 14° 53° (NE) 03:52:22 437.445
M-CUBED/EXP-1 PRIME 20 Aug 03:47:41 03:49:19 12° 319° (NW) 03:50:57 437.505
DUCHIFAT 1 20 Aug 03:54:34 03:55:31 11° 308° (NW) 03:56:28 145.980
BUGSAT 1 20 Aug 03:58:21 04:01:27 22° 299° (WNW) 04:04:34 437.445
ITUPSAT 1 20 Aug 04:01:34 04:06:18 65° 258° (WSW) 04:11:03 437.325
Oscar 19 20 Aug 04:06:09 04:11:12 52° 293° (WNW) 04:16:14 437.125/150
YUBILEINY 20 Aug 04:07:03 04:15:50 87° 79° (E) 04:24:33 435.215
SO-50 20 Aug 04:22:51 04:26:07 19° 352° (N) 04:29:24 436.795
STARS 20 Aug 04:29:37 04:32:12 15° 54° (NE) 04:34:47 437.465
AO-7 20 Aug 05:02:14 05:10:24 54° 102° (ESE) 05:18:29 .
PCSat 20 Aug 05:02:16 05:05:59 18° 5° (N) 05:09:41 145.827
MOZHAYETS 4 20 Aug 05:02:26 05:06:06 24° 268° (W) 05:09:49
BEESAT 20 Aug 05:07:40 05:11:04 19° 270° (W) 05:14:29 436.000
Gurwin Techsat 1B 20 Aug 05:09:19 05:13:46 28° 302° (WNW) 05:18:12 435.225
CUBESAT XI-V 20 Aug 05:17:26 05:22:03 65° 258° (WSW) 05:26:45 437.345
KKS-1 20 Aug 05:21:24 05:25:52 78° 72° (ENE) 05:30:22 437.445
ITAMSAT 1 20 Aug 05:22:37 05:27:50 73° 105° (ESE) 05:33:00 435.822/435.867
NO-84 20 Aug 05:23:04 05:25:54 61° 349° (N) 05:28:47 435.350 FM
ITUPSAT 1 20 Aug 05:44:45 05:45:06 10° 277° (W) 05:45:26 437.325
Oscar 19 20 Aug 05:47:29 05:49:26 12° 314° (NW) 05:51:24 437.125/150
BEESAT 3 20 Aug 05:48:51 05:51:06 15° 113° (ESE) 05:53:22 437.485
STARS 20 Aug 06:03:30 06:07:56 88° 74° (ENE) 06:12:22 437.465
SO-50 20 Aug 06:04:30 06:08:03 22° 16° (NNE) 06:11:37 436.795
YUBILEINY 20 Aug 06:04:49 06:11:36 27° 283° (WNW) 06:18:23 435.215
AO-85 20 Aug 06:30:30 06:33:32 22° 118° (ESE) 06:36:35 145.980
PCSat 20 Aug 06:46:16 06:51:05 31° 31° (NNE) 06:55:52 145.827
KAITUO 1B 20 Aug 06:51:27 06:53:33 14° 89° (E) 06:55:39 145.475/437.950
AO-7 20 Aug 06:55:15 07:03:11 50° 305° (NW) 07:11:02 .
STRAND 1 20 Aug 06:58:48 07:03:22 34° 61° (ENE) 07:07:55 437.568
KKS-1 20 Aug 07:00:16 07:02:59 16° 272° (W) 07:05:42 437.445
NO-84 20 Aug 07:00:38 07:03:29 57° 10° (N) 07:06:28 435.350 FM
ITAMSAT 1 20 Aug 07:02:49 07:06:50 23° 304° (NW) 07:10:51 435.822/435.867
DOVE 4 20 Aug 07:04:47 07:09:30 66° 102° (ESE) 07:13:54 437.250
LilacSat-2 20 Aug 07:08:23 07:11:45 28° 94° (E) 07:15:07 437.200
XW-2D 20 Aug 07:14:03 07:17:29 30° 95° (E) 07:20:55 145.860 - 145.880
CUTE-I 20 Aug 07:23:04 07:27:54 34° 95° (E) 07:32:41 437.470
BEESAT 3 20 Aug 07:24:03 07:28:06 89° 109° (ESE) 07:32:10 437.485
XW-2B 20 Aug 07:24:57 07:28:34 37° 97° (E) 07:32:09 145.730 - 145.750
NUDT-PHONESAT 20 Aug 07:25:07 07:28:25 29° 95° (E) 07:31:43 437.300
BEESAT 2 20 Aug 07:35:15 07:39:07 47° 125° (SE) 07:43:02 435.950
STARS 20 Aug 07:42:43 07:44:55 13° 273° (W) 07:47:06 437.465
XW-2C 20 Aug 07:43:52 07:47:41 60° 102° (ESE) 07:51:30 145.795 - 145.815
SO-50 20 Aug 07:44:55 07:49:24 55° 40° (NE) 07:53:54 436.795
HO-68 20 Aug 07:48:23 07:54:07 25° 89° (E) 07:59:49 435.675
FO-29 20 Aug 07:49:41 07:54:37 20° 49° (NE) 07:59:13 435.910
CUTE 1.7 + AOD 2 20 Aug 07:52:42 07:55:43 18° 89° (E) 07:58:44 437.475
XW-2F 20 Aug 07:56:59 08:00:50 79° 103° (ESE) 08:04:40 145.980 - 146.000
AO-85 20 Aug 08:09:43 08:13:35 59° 318° (NW) 08:17:32 145.980
KAITUO 1B 20 Aug 08:24:11 08:27:58 66° 287° (WNW) 08:31:44 145.475/437.950
PCSat 20 Aug 08:29:36 08:35:05 83° 234° (SW) 08:40:30 145.827
STRAND 1 20 Aug 08:37:33 08:42:26 45° 261° (W) 08:47:22 437.568
NO-84 20 Aug 08:37:59 08:40:52 48° 209° (SSW) 08:43:55 435.350 FM
SEEDS 20 Aug 08:42:08 08:46:03 34° 95° (E) 08:49:56 437.485
LilacSat-2 20 Aug 08:42:34 08:46:05 33° 293° (WNW) 08:49:35 437.200
DOVE 4 20 Aug 08:43:12 08:46:43 21° 303° (WNW) 08:50:05 437.250
XW-2A 20 Aug 08:44:33 08:47:29 26° 95° (E) 08:50:24 145.665 - 145.685
XW-2D 20 Aug 08:48:16 08:51:39 30° 294° (WNW) 08:55:03 145.860 - 145.880
AO-7 20 Aug 08:48:45 08:54:08 19° 329° (NNW) 08:59:31 .
AO-73 20 Aug 08:51:56 08:53:52 13° 86° (E) 08:55:49 145.935
PRISM 20 Aug 08:55:05 08:56:24 11° 52° (NE) 08:57:45 437.425
NUDT-PHONESAT 20 Aug 08:58:59 09:02:18 30° 294° (WNW) 09:05:37 437.300
XW-2B 20 Aug 08:59:26 09:02:37 25° 296° (WNW) 09:05:48 145.730 - 145.750
BEESAT 3 20 Aug 09:02:49 09:06:11 24° 334° (NNW) 09:09:33 437.485
CUTE-I 20 Aug 09:03:01 09:08:06 46° 295° (WNW) 09:13:10 437.470
TIGRISAT 20 Aug 09:03:17 09:05:55 16° 56° (ENE) 09:08:32 435.000
BEESAT 2 20 Aug 09:13:15 09:16:59 35° 326° (NW) 09:20:47 435.950
XW-2C 20 Aug 09:18:55 09:21:30 17° 300° (WNW) 09:24:04 145.795 - 145.815
UWE-3 20 Aug 09:22:32 09:26:34 43° 99° (E) 09:30:39 435.000/436.395/437.385
SO-50 20 Aug 09:25:40 09:29:41 31° 240° (WSW) 09:33:43 436.795
CUBEBUG 2 20 Aug 09:27:31 09:31:43 76° 103° (ESE) 09:35:58 437.445
CUTE 1.7 + AOD 2 20 Aug 09:27:42 09:31:57 62° 288° (WNW) 09:36:12 437.475
XW-2F 20 Aug 09:32:23 09:34:27 14° 302° (WNW) 09:36:31 145.980 - 146.000
